Regional Weather Roundup
Issued by NWS Cleveland, OH

Home | Current Version | Previous Version | Graphics & Text | Print | Product List | Glossary On
Versions: 1 2 3 4 5 6 7 8 9 10 11 12 13 14 15 16 17 18 19 20 21 22 23 24 25 26 27 28 29 30 31 32 33 34 35 36 37 38 39 40 41 42 43 44 45 46 47 48 49 50
000
ASUS41 KCLE 232100
RWRCLE
OHIO REGIONAL WEATHER ROUNDUP
NATIONAL WEATHER SERVICE WILMINGTON, OH
400 PM EST SUN NOV 23 2014

NOTE: "FAIR" INDICATES FEW OR NO CLOUDS BELOW 12,000 FEET WITH NO
SIGNIFICANT WEATHER AND/OR OBSTRUCTIONS TO VISIBILITY.

OHZ001>008-015>018-024>027-034-035-043-044-232200-
   NORTHWEST OHIO

CITY           SKY/WX    TMP DP  RH WIND       PRES   REMARKS
DEFIANCE       RAIN      55  49  80 E6        29.65F
FINDLAY        CLOUDY    59  43  55 SE14      29.66F
TOLEDO EXPRESS CLOUDY    56  46  69 SE8       29.67F
TOLEDO METCALF CLOUDY    58  45  62 SE9       29.68F
LIMA           CLOUDY    57  43  59 SE13      29.65F
$$

OHZ009>014-019>023-028>033-038-089-232200-
   NORTHEAST OHIO

CITY           SKY/WX    TMP DP  RH WIND       PRES   REMARKS
CLE-HOPKINS    CLOUDY    56  41  57 SE13      29.79F
CLE-LAKEFRONT  MOCLDY    57  41  55 SE12      29.76F
CUY CO. ARPT   MOCLDY    57  43  58 SE14      29.80F
LORAIN-ELYRIA  MOCLDY    55  42  61 SE15      29.75F
ASHTABULA      MOCLDY    53  40  61 SE12      29.83F
AKRON-CANTON   CLOUDY    59  43  55 SE12      29.79F
WOOSTER        NOT AVBL
MANSFIELD      CLOUDY    57  42  57 SE12      29.73F
YOUNGSTOWN     CLOUDY    57  43  59 SE12      29.83F
$$

OHZ042-051>053-060>062-070>072-077>081-232200-
  SOUTHWEST OHIO

CITY           SKY/WX    TMP DP  RH WIND       PRES   REMARKS
CINC-COVINGTON LGT RAIN  55  48  77 SE18      29.63F
CINC-LUNKEN    LGT RAIN  57  48  72 SE12      29.65F
HAMILTON       LGT RAIN  57  50  77 VRB6      29.65F
DAYTON         NOT AVBL
WRIGHT-PAT AFB NOT AVBL
DAYTON GENERAL CLOUDY    59  44  57 SE12      29.64F
WILMINGTON     CLOUDY    60  43  53 SE10      29.67F
$$

OHZ036-037-039>041-045>050-054>059-063>069-073>076-082>088-232200-
  CENTRAL AND SOUTHEAST OHIO

CITY           SKY/WX    TMP DP  RH WIND       PRES   REMARKS
COLUMBUS       CLOUDY    61  40  45 SE12      29.70F
OSU AIRPORT    CLOUDY    62  40  44 SE15      29.69F
BOLTON FIELD   CLOUDY    63  43  48 SE14      29.69
RICKENBACK AFB NOT AVBL
NEWARK         CLOUDY    61  38  42 E10       29.73F
MARION         CLOUDY    60  43  53 SE10      29.70F
LANCASTER      CLOUDY    62  40  44 SE10      29.72F
ZANESVILLE     CLOUDY    61  39  44 SE10      29.76F
NEW PHILLY     CLOUDY    63  43  48 SE7       29.79F
$$



USA.gov is the U.S. government's official web portal to all federal, state and local government web resources and services.